SCP
0 0 0 0 0 0 0 0 0 0 0 0 0 0 0 0 0 0 0 0 0 0 0 0 0 0 0 0 0 0 0 0 0 0 0 0 0 0
0 0 0 0 0 0 0 0 0 0 0 0 0 0 0 0 0 0 0 0 0 0 0 0 0 0 0 0 0 0 0 0 0 0 0 0 0 0
0 0 0 0 0 0 0 0 0 0 0 0 0 0 0 0 0 0 0 0 0 0 0 0 0 0 0 0 0 0 0 0 0 0 0 0 0 0
0 0 0 0 0 0 0 0 0 0 0 0 0 0 0 0 0 0 0 0 0 0 0 0 0 0 0 0 0 0 0 0 0 0 0 0 0 0
0 0 0 0 0 0 0 0 0 0 0 0 0 0 0 0 0 0 0 0 0 0 0 0 0 0 0 0 0 0 0 0 0 0 0 0 0 0
0 0 0 0 0 0 0 0 0 0 0 0 0 0 0 0 0 0 0 0 0 0 0 0 0 0 0 0 0 0 0 0 0 0 0 0 0 0
0 0 0 0 0 0 0 0 0 0 0 0 0 0 0 0 0 0 0 0 0 0 0 0 0 0 0 0 0 0 0 0 0 0 0 0 0 0
0 0 0 0 0 0 0 0 0 0 0 0 0 0 0 0 0 0 0 0 0 0 0 0 0 0 0 0 0 0 0 0 0 0 0 0 0 0
0 0 0 0 0 0 0 0 0 0 0 0 0 0 0 0 0 0 0 0 0 0 0 0 0 0 0 0 0 0 0 0 0 0 0 0 0 0
0 0 0 0 0 0 0 0 0 0 0 0 0 0 0 0 0 0 0 0 0 0 0 0 0 0 0 0 0 0 0 0 0 0 0 0 0 0
0 0 0 0 0 0 0 0 0 0 0 0 0 0 0 0 0 0 0 0 0 0 0 0 0 0 0 0 0 0 0 0 0 0 0 0 0 0
0 0 0 0 0 0 0 0 0 0 0 0 0 0 0 0 0 0 0 0 0 0 0 0 0 0 0 0 0 0 0 0 0 0 0 0 0 0
0 0 0 0 0 0 0 0 0 0 0 0 0 0 0 0 0 0 0 0 0 0 0 0 0 0 0 0 0 0 0 0 0 0 0 0 0 0
0 0 0 0 0 0 0 0 0 0 0 0 0 0 0 0 0 0 0 0 0 0 0 0 0 0 0 0 0 0 0 0 0 0 0 0 0 0
0 0 0 0 0 0 0 0 0 0 0 0 0 0 0 0 0 0 0 0 0 0 0 0 0 0 0 0 0 0 0 0 0 0 0 0 0 0
0 0 0 0 0 0 0 0 0 0 0 0 0 0 0 0 0 0 0 0 0 0 0 0 0 0 0 0 0 0 0 0 0 0 0 0 0 0
0 0 0 0 0 0 0 0 0 0 0 0 0 0 0 0 0 0 0 0 0 0 0 0 0 0 0 0 0 0 0 0 0 0 0 0 0 0
0 0 0 0 0 0 0 0 0 0 0 0 0 0 0 0 0 0 0 0 0 0 0 0 0 0 0 0 0 0 0 0 0 0 0 0 0 0
0 0 0 0 0 0 0 0 0 0 0 0 0 0 0 0 0 0 0 0 0 0 0 0 0 0 0 0 0 0 0 0 0 0 0 0 0 0
0 0 0 0 0 0 0 0 0 0 0 0 0 0 0 0 0 0 0 0 0 0 0 0 0 0 0 0 0 0 0 0 0 0 0 0 0 0
0 0 0 0 0 0 0 0 0 0 0 0 0 0 0 0 0 0 0 0 0 0 0 0 0 0 0 0 0 0 0 0 0 0 0 0 0 0
0 0 0 0 0 0 0 0 0 0 0 0 0 0 0 0 0 0 0 0 0 0 0 0 0 0 0 0 0 0 0 0 0 0 0 0 0 0
0 0 0 0 0 0 0 0 0 0 0 0 0 0 0 0 0 0 0 0 0 0 0 0 0 0 0 0 0 0 0 0 0 0 0 0 0 0
Wind_Speed
2 1 1 2 2 3 3 4 5 9 9 6 4 4 5 6 11 10 10 15 20 20 21 21 22 22 23 23 24 24 24 23 22 21 20 19 18 17
2 2 2 2 3 2 3 3 4 6 8 5 6 8 9 10 14 12 12 19 21 21 21 21 21 22 22 23 23 23 23 24 23 23 22 21 20 19
4 4 5 4 3 3 4 4 4 5 9 9 7 8 10 12 12 11 11 11 11 19 20 21 21 21 22 22 22 22 23 22 22 23 23 23 21 20
5 5 6 5 6 5 4 5 6 6 7 12 10 9 11 12 12 13 11 10 10 16 21 21 22 22 21 21 21 20 19 19 21 21 22 23 22 21
5 6 7 6 7 6 7 7 6 7 7 9 11 9 9 10 11 11 12 10 11 13 17 19 20 21 20 19 18 17 16 16 17 18 19 20 20 19
6 6 7 7 8 8 7 8 7 8 9 9 10 9 9 9 8 9 9 8 9 10 12 14 17 20 20 19 19 19 16 15 15 16 16 16 16 15
7 7 7 11 12 9 8 8 8 8 8 8 9 8 8 8 7 7 9 8 9 9 9 9 9 9 11 15 17 18 17 15 14 14 14 14 15 14
8 9 9 9 11 14 15 15 14 11 10 9 8 9 10 9 8 7 8 8 6 4 5 8 7 9 9 8 13 17 16 15 14 14 14 14 14 14
8 8 7 8 11 8 11 15 14 16 15 11 10 10 11 10 9 9 8 8 8 6 6 8 7 8 8 8 14 15 15 15 15 14 13 14 14 14
8 8 9 10 9 10 10 11 10 11 12 9 9 10 10 9 9 8 8 8 8 7 6 6 5 6 7 6 10 13 13 13 13 13 12 12 12 13
9 9 9 9 12 13 11 10 11 10 11 12 13 12 13 12 9 6 6 6 6 6 3 3 4 5 5 5 5 8 10 10 10 11 11 12 12 12
9 9 10 10 14 14 9 9 10 10 10 11 10 9 8 8 9 6 6 6 5 4 2 3 3 4 4 3 3 2 3 6 8 9 10 11 11 8
7 7 8 13 15 15 11 8 10 12 9 8 7 7 6 5 5 5 5 5 5 4 3 4 3 3 3 4 3 2 2 2 3 4 7 9 11 9
7 7 8 14 15 14 10 11 13 10 6 6 6 5 5 5 6 6 6 5 5 6 6 5 3 3 3 3 3 2 2 2 2 3 3 7 8 9
7 11 13 13 12 9 11 13 10 6 5 6 6 5 5 6 6 5 6 5 5 4 5 5 4 4 4 3 3 2 2 1 2 3 4 4 5 5
8 10 12 11 9 9 9 8 6 6 5 5 6 6 5 5 5 5 4 5 5 5 5 6 5 4 4 5 3 2 2 1 1 3 4 4 4 5
8 5 5 7 7 8 8 7 6 6 6 5 5 6 6 6 5 5 5 5 5 6 7 7 6 3 1 5 4 3 2 1 2 3 4 4 4 4
6 5 6 7 7 7 8 7 7 7 6 6 5 5 6 6 6 5 5 5 6 7 7 8 8 6 3 3 11 6 5 4 4 5 5 5 4 4
5 5 6 6 7 7 7 7 7 7 6 6 6 5 5 5 5 6 6 6 6 7 7 8 8 8 8 8 10 15 8 6 6 7 7 6 5 5
5 6 6 6 7 7 7 7 7 7 6 6 5 5 5 5 5 6 6 8 7 7 8 8 9 9 8 6 6 10 18 10 7 8 8 8 8 10
6 6 6 6 7 7 7 7 7 7 7 6 5 6 5 5 6 6 6 9 8 8 8 9 9 11 6 5 8 11 14 21 18 9 6 7 8 8
6 6 6 6 7 7 7 7 7 7 8 6 6 5 5 4 6 7 7 7 7 7 8 8 9 9 10 11 12 12 13 13 19 27 25 16 7 6
6 6 6 6 7 7 7 8 9 7 6 6 6 6 5 5 6 6 7 7 7 8 8 8 8 9 10 11 11 11 15 14 12 14 16 23 25 23
Wind_Direction
36 12 305 287 269 250 243 243 272 293 294 275 265 271 278 278 277 282 277 281 286 285 284 281 279 277 275 274 272 270 268 265 263 259 253 248 246 246
24 12 341 308 303 289 273 263 252 272 289 283 279 281 283 286 288 288 282 284 286 284 282 280 277 275 273 271 269 267 264 261 258 255 250 245 243 243
10 354 332 318 308 305 295 283 273 268 285 294 283 280 278 280 285 284 280 277 274 276 278 279 277 274 272 270 269 268 266 262 257 252 248 244 241 240
350 337 325 321 312 301 292 285 280 271 276 294 298 293 284 283 281 280 281 277 274 276 277 278 276 275 273 269 268 267 266 262 257 253 248 244 242 239
328 318 312 311 303 296 290 284 280 281 276 286 293 292 288 285 285 281 281 278 278 277 277 277 276 276 275 271 269 266 262 257 252 248 246 243 241 239
318 308 302 297 289 289 288 284 285 287 285 284 288 291 289 287 280 285 289 284 281 282 279 276 274 275 274 271 268 264 258 253 247 239 236 234 233 233
320 314 306 304 305 304 304 302 298 292 291 289 290 293 295 296 291 286 289 292 284 275 276 275 274 270 271 269 267 264 258 251 245 236 230 227 224 222
317 316 312 306 311 314 313 311 308 303 301 296 295 297 299 298 294 290 291 294 290 270 271 279 274 271 266 257 256 256 254 249 244 236 228 223 220 218
311 310 311 310 314 308 309 310 306 301 297 296 297 300 299 300 297 294 290 291 290 287 283 284 276 271 269 263 260 253 248 244 240 233 225 219 216 213
311 306 305 308 311 316 313 307 304 302 298 296 288 290 293 295 293 293 293 292 285 282 277 282 283 279 279 267 257 252 247 240 235 230 221 214 211 209
320 317 316 314 313 318 318 312 309 307 307 302 296 293 294 296 298 300 300 301 304 303 291 279 290 293 286 279 268 254 249 240 233 223 213 208 204 201
324 323 323 319 318 320 317 309 309 311 312 312 310 306 303 301 302 298 299 300 303 296 302 299 286 298 294 286 287 278 254 240 227 216 206 200 191 191
321 322 319 319 319 319 318 307 303 307 307 307 310 310 310 310 312 310 299 294 296 287 296 300 285 283 279 293 291 278 251 234 210 205 199 190 183 184
315 315 313 317 319 321 322 318 318 320 319 321 322 324 328 330 324 319 310 300 286 287 297 302 283 291 290 282 284 291 273 228 202 187 178 173 175 171
317 318 321 323 328 328 326 328 331 335 334 339 339 338 334 329 328 326 325 321 308 303 312 310 308 303 297 284 283 278 283 252 189 175 164 159 159 159
328 322 324 328 336 333 333 338 341 341 339 341 340 338 337 342 347 344 338 340 341 336 332 336 333 330 330 317 301 298 285 273 184 161 149 143 145 151
322 328 344 344 347 345 342 342 343 347 349 347 348 352 352 356 355 349 349 349 355 355 355 349 339 322 336 357 340 340 349 30 90 118 125 120 122 134
346 349 346 344 344 342 341 342 345 349 347 349 355 357 1 3 2 360 2 7 10 9 7 0 356 359 359 39 19 11 30 48 68 84 94 99 97 104
1 350 345 343 341 340 341 343 344 344 345 355 360 359 2 7 8 10 11 15 19 17 13 8 8 13 27 27 17 20 36 52 62 69 70 72 77 79
354 347 344 341 339 341 343 344 343 344 348 356 360 2 8 14 18 22 22 22 23 22 21 18 17 15 22 19 18 28 35 45 56 66 71 74 74 75
347 345 342 339 339 341 343 345 345 345 347 351 357 1 7 17 27 31 33 26 28 29 29 25 14 11 22 40 54 50 47 49 55 55 58 72 71 69
344 342 340 340 339 341 343 344 346 348 350 353 354 357 5 18 30 37 40 39 36 36 37 33 26 32 43 52 55 52 52 54 55 56 53 56 65 68
342 339 338 340 341 341 342 343 344 346 349 350 354 360 12 28 36 42 46 51 51 49 45 43 44 46 48 51 55 55 54 54 56 60 60 63 73 79